Simultaneous Nadir Overpasses (SNOs) Predictions

Prediction of SNOs between GOES-16 and AQUA Satellite Orbit:

Table of predicted SNOs for the next 14.0 days since TLE Epoch: 9/14/2024
Index Date Time (GOES-16) GOES-16 Lat,Lon AQUA Lat,Lon Distance(km) Time Diff (sec)
1 09/14/2024 07:24:52 0.05, -75.20 0.46, -77.18 225.38 80
2 09/16/2024 07:09:58 0.04, -75.21 -0.43, -72.88 263.67 80
3 09/16/2024 19:27:19 -0.04, -75.21 -0.57, -77.73 286.70 80
4 09/18/2024 19:12:22 -0.04, -75.22 0.36, -73.42 205.11 80
5 09/19/2024 07:29:31 0.03, -75.23 0.70, -78.22 340.33 80
6 09/21/2024 07:14:31 0.04, -75.25 -0.28, -73.90 153.76 80
7 09/21/2024 19:31:49 -0.03, -75.25 -0.79, -78.73 395.51 80
8 09/23/2024 19:16:45 -0.03, -75.28 0.17, -74.40 100.40 80
9 09/24/2024 07:33:54 0.03, -75.28 0.84, -79.19 443.95 80
10 09/26/2024 07:18:46 0.02, -75.31 -0.10, -74.84 54.21 80
11 09/26/2024 19:36:02 -0.02, -75.32 -0.97, -79.66 493.95 80
